Regional Weather Roundup
Issued by NWS

Home | Current Version | Previous Version | Text Only | Print | Product List | Glossary On
Versions: 1 2 3 4 5 6 7 8 9 10 11 12 13 14 15 16 17 18 19 20 21 22 23 24 25 26 27 28 29 30 31 32 33 34 35 36 37 38 39 40 41 42 43 44 45 46 47 48 49 50
000
ASUS46 KSTO 080109
RWRCA

NORTHERN AND CENTRAL CA REGIONAL WEATHER ROUNDUP
NATIONAL WEATHER SERVICE SACRAMENTO CA
500 PM PST WED DEC 07 2016

NOTE: FAIR INDICATES FEW OR NO CLOUDS BELOW 12,000 FEET WITH NO
SIGNIFICANT WEATHER AND/OR OBSTRUCTIONS TO VISIBILITY.

CAZ001-003-080200-
NORTHWEST AREA

CITY           SKY/WX    TMP DP  RH WIND       PRES   REMARKS
CRESCENT CITY  LGT RAIN  43  32  65 E3        30.03F
ARCATA         NOT AVBL
SHELTER COVE   NOT AVBL
UKIAH          CLOUDY    43  37  79 S5        30.07F
$$

CAZ006-505>513-080200-
BAY AREA

CITY           SKY/WX    TMP DP  RH WIND       PRES   REMARKS
SANTA ROSA     LGT RAIN  45  40  82 SE3       30.09S
SAN RAFAEL     N/A       48  MM  MM MISG
NAPA           CLOUDY    48  34  58 E16       30.12S
CONCORD        LGT RAIN  48  30  49 NE5       30.13F
OAKLAND CITY   N/A       49  MM  MM MISG
OAKLAND        CLOUDY    50  36  58 E10       30.11F
SAN FRAN CITY  N/A       49  MM  58 MISG
SAN FRAN ARPT  CLOUDY    50  39  66 SE8       30.11F
LIVERMORE      LGT RAIN  44  34  67 NE8       30.11F
HAYWARD        CLOUDY    49  34  56 NE7       30.11F
REDWOOD CITY   N/A       MM  MM  MM MISG
MOFFETT ARPT   CLOUDY    50  37  61 CALM      30.12F
SAN JOSE ARPT  CLOUDY    52  40  63 SW3       30.12S
$$
CAZ034-037-514>518-080200-
CENTRAL COAST

CITY           SKY/WX    TMP DP  RH WIND       PRES   REMARKS
WATSONVILLE    CLOUDY    51  43  74 SE3       30.13F
SALINAS        CLOUDY    53  37  54 SE3       30.13R
MONTEREY       CLOUDY    52  43  71 CALM      30.13S
PT PIEDRAS BLS NOT AVBL
SAN LUIS OBISP PTCLDY    56  39  53 W3        30.12S
SANTA MARIA    MOCLDY    53  40  61 CALM      30.12R
$$
CAZ015-016-080200-
NORTHERN SACRAMENTO VALLEY

CITY           SKY/WX    TMP DP  RH WIND       PRES   REMARKS
REDDING        LGT RAIN  40  34  79 NW3       30.20R
RED BLUFF      LGT RAIN  39  35  86 NW6       30.22R WCI  35
OROVILLE       LGT RAIN  42  36  79 N6        30.19F
$$
CAZ016>018-080200-
SOUTHERN SACRAMENTO VALLEY

CITY           SKY/WX    TMP DP  RH WIND       PRES   REMARKS
AUBURN         CLOUDY    45  36  70 CALM      30.14R
BEALE AFB      CLOUDY    43  37  79 CALM      30.15S
LINCOLN        CLOUDY    43  36  75 NW5       30.16R
MARYSVILLE     CLOUDY    44  35  70 W3        30.18S
PLACERVILLE    CLOUDY    41  32  70 CALM      30.11F
SAC INTL ARPT  LGT RAIN  42  38  85 NW6       30.16S
MATHER AIRPORT CLOUDY    45  37  76 CALM      30.16S
DOWNTOWN SAC   N/A       44  MM  MM MISG
SAC EXEC ARPT  LGT RAIN  44  39  82 N3        30.16S
VACAVILLE      CLOUDY    45  36  70 NE7       30.17S
TRAVIS AFB     CLOUDY    44  36  73 NE8       30.14S
$$
CAZ019>021-080200-
SAN JOAQUIN VALLEY

CITY           SKY/WX    TMP DP  RH WIND       PRES   REMARKS
STOCKTON       CLOUDY    47  41  80 SE5       30.14F
MODESTO        CLOUDY    49  40  71 SE3       30.15F
MERCED         CLOUDY    48  39  71 S3        30.16F
LEMOORE        CLOUDY    50  39  66 NE5       30.18S
FRESNO         CLOUDY    50  40  68 NE6       30.17F
HANFORD        CLOUDY    51  41  68 CALM      30.18F
PORTERVILLE    MOCLDY    51  39  63 N3        30.18F
BAKERSFIELD    MOCLDY    51  39  63 NW8       30.17R
$$
CAZ011-012-071-080200-
NORTHERN MOUNTAINS

CITY           SKY/WX    TMP DP  RH WIND       PRES   REMARKS
YREKA          CLOUDY    30  20  66 SW5       30.12S WCI  25
MOUNT SHASTA   SNOW      29  26  89 CALM      30.09S VSB 1/2
ALTURAS        CLOUDY    28  17  63 NE5       30.08R WCI  23
$$
CAZ011-012-071-080200-
SIERRA NEVADA MTNS

CITY           SKY/WX    TMP DP  RH WIND       PRES   REMARKS
BLUE CANYON    FLURRIES  32  24  72 CALM      30.08R
TRUCKEE        CLOUDY    30  19  64 N3        30.06F
TAHOE VLY ARPT CLOUDY    34  19  54 CALM      30.03S
MAMMOTH LAKES  CLOUDY    31   6  34 E8        30.09S WCI  24
$$




USA.gov is the U.S. government's official web portal to all federal, state and local government web resources and services.